Regional Weather Roundup
Issued by NWS

Home | Current Version | Previous Version | Graphics & Text | Print | Product List | Glossary Off
Versions: 1 2 3 4 5 6 7 8 9 10 11 12 13 14 15 16 17 18 19 20 21 22 23 24 25 26 27 28 29 30 31 32 33 34 35 36 37 38 39 40 41 42 43 44 45 46 47 48 49 50

927
ASUS45 KBOU 102010
RWRCO

WEATHER ROUNDUP FOR COLORADO
NATIONAL WEATHER SERVICE DENVER/BOULDER CO
100 PM MST SUN DEC 10 2017

NOTE: "FAIR" INDICATES FEW OR NO CLOUDS BELOW 12000 FEET WITH NO
SIGNIFICANT WEATHER AND/OR OBSTRUCTIONS TO VISIBILITY.

COZ001>005-013-030-031-102100-
...NORTHWEST COLORADO...

CITY           SKY/WX    TMP DP  RH WIND       PRES   REMARKS
CRAIG          FAIR      32  14  47 SW3       30.55F
HAYDEN         FAIR      35  18  49 SE6       30.55F WCI  30
MEEKER         FAIR      46   2  16 CALM      30.52F
RABBIT EARS PA FAIR      28  10  47 W7        30.57F WCI  21
STEAMBOAT SPGS FAIR      33  15  48 CALM      30.55F
WALDEN         FAIR      32  10  40 SE6       30.54F WCI  26
$$

COZ006>008-011-102100-
...WEST CENTRAL VALLEYS...

CITY           SKY/WX    TMP DP  RH WIND       PRES   REMARKS
GRAND JUNCTION FAIR      43   5  20 VRB3      30.55F
MONTROSE       FAIR      41   3  20 NW5       30.56F
EAGLE          FAIR      30  12  47 CALM      30.62F
RIFLE          FAIR      42   3  19 NW3       30.55F
DELTA          FAIR      42   2  18 W5        30.55F
NUCLA          FAIR      41  -4  15 CALM      30.57F
$$

COZ017>023-064>068-102100-
...SOUTHWEST COLORADO...

CITY           SKY/WX    TMP DP  RH WIND       PRES   REMARKS
DURANGO        FAIR      48   4  16 W7        30.49F
CORTEZ         FAIR      47   2  15 SW8       30.51F
PAGOSA SPRINGS FAIR      50 -13   7 CALM      30.50F
TELLURIDE      FAIR      48 -16   6 W9        30.55F
WOLF CREEK PAS FAIR      36 -15  11 W6        30.65F
$$

COZ009-010-012-014-032>034-037-058>063-102100-
...CENTRAL COLORADO...

CITY           SKY/WX    TMP DP  RH WIND       PRES   REMARKS
ASPEN          FAIR      43  -3  14 N7        30.53F
BUENA VISTA    FAIR      48 -12   8 S3        30.46F
COPPER MTN     NOT AVBL
BERTHOUD PASS  FAIR      19   9  63 NW20      30.58F WCI   4
COTTONWOOD PAS FAIR      50 -24   4 SE5       30.51F
GUNNISON       FAIR      33  -2  22 CALM      30.57F
KREMMLING      FAIR      27  16  63 CALM      30.63F
LEADVILLE      FAIR      40 -13  10 N6        30.53F
MONARCH PASS   FAIR      30  -9  17 SW18      30.69F WCI  18
SALIDA         FAIR      52  -6   9 N5        30.52F
SUNLIGHT       FAIR      30  -9  17 CALM      30.63F
WILKERSON PASS FAIR      36 -24   7 N6        30.57F
$$

COZ069>075-102100-
...SAN LUIS VALLEY/SANGRE DE CRISTO MOUNTAINS...

CITY           SKY/WX    TMP DP  RH WIND       PRES   REMARKS
ALAMOSA        FAIR      43  -4  14 NE5       30.49F
DEL NORTE      FAIR      43  -5  13 NE6       30.51F
LA VETA PASS   FAIR      39   3  22 SW14        N/A
SAGUACHE       FAIR      43  -6  13 S6        30.51F
$$

COZ035-036-038>040-102100-
...NORTHERN COLORADO FRONT RANGE...

CITY           SKY/WX    TMP DP  RH WIND       PRES   REMARKS
DENVER INTL AP FAIR      60  -9   6 W3        30.36F
DMNS CITY PARK NOT AVBL
AURORA         MOSUNNY   60 -11   5 SW3       30.37F
FRONT RANGE AP SUNNY     61  -6   6 CALM      30.37F
ERIE MUNI ARPT FAIR      56  -3   9 CALM      30.41F
BOULDER MUN AP FAIR      55   5  13 CALM      30.37F
CENTENNIAL     FAIR      58  -4   8 CALM      30.37F
BROOMFIELD     MOSUNNY   57   1  10 CALM      30.38F
FORT COLLINS   FAIR      55   4  12 S8        30.36F
LONGMONT       FAIR      59   1  10 CALM      30.38F
$$

COZ041-046-047-076>085-087-088-102100-
...PIKES PEAK/PALMER DIVIDE AND SOUTHERN FOOTHILLS...

CITY           SKY/WX    TMP DP  RH WIND       PRES   REMARKS
COLO. SPRINGS  FAIR      55  -6   8 S9        30.41F
A. F. ACADEMY  FAIR      54 -12   6 S7        30.40F
SCHRIEVER AFB  FAIR      53  -7   8 SW9       30.41F
CHEYENNE MTN   FAIR      51  -6   9 SE5       30.37F
ELLICOTT         N/A    N/A N/A N/A SW9       30.39F
FALCON         FAIR      54 -10   7 S8G18     30.43F
FORT CARSON    FAIR      56 -10   6 E6        30.39F
LIMON          FAIR      60  -9   6 NW6       30.37F
MONUMENT HILL  FAIR      54  -8   8 W6        30.42F
CANON CITY     FAIR      61   0   8 CALM      30.37F
WALSENBURG     FAIR      61   1   9 CALM      30.38F
TRINIDAD       FAIR      59  -5   7 E7        30.38F
$$

COZ042>045-048>051-090-091-102100-
...NORTHEAST COLORADO...

CITY           SKY/WX    TMP DP  RH WIND       PRES   REMARKS
GREELEY ARPT   FAIR      53   5  14 SW3       30.36F
AKRON          FAIR      57  -1   9 W10       30.34F
BURLINGTON     FAIR      62   3   9 N12G21    30.34F
WRAY           FAIR      63   3   9 NW13      30.31F
YUMA           FAIR      59   1  10 NW13      30.33F
STERLING       FAIR      63   3   9 NW18G25   30.30F
HOLYOKE        FAIR      63   3   9 NW15G22   30.30F
FORT MORGAN    FAIR      57   1  10 W9        30.35F
$$

COZ086-089-092>099-102100-
...SOUTHEAST COLORADO...

CITY           SKY/WX    TMP DP  RH WIND       PRES   REMARKS
PUEBLO         FAIR      60  -4   7 CALM      30.37F
LA JUNTA       FAIR      58   0   9 CALM      30.38F
LAMAR          FAIR      62   1   8 W8        30.34F
SPRINGFIELD      N/A     62   3   9 VRB6      30.36F
$$




USA.gov is the U.S. government's official web portal to all federal, state and local government web resources and services.